Location: Gwatt
(46.7204°N, 7.6223°E)
Time: 01:24:34
(UTC+00:00)

Courier 1B Rocket - Pass Details

Date: 22 January 2021
Orbit: 920 x 1202 km, 28.3° (Epoch: 05 March)

Event Time Altitude Azimuth Distance (km) Brightness Sun altitude
Rises 07:44:46 0° 225° (SW) 3,815 8.0 5.0°
Reaches altitude 10° 07:48:37 10° 205° (SSW) 2,920 7.7 5.6°
Maximum altitude 07:52:43 16° 170° (S) 2,551 8.0 6.1°
Drops below altitude 10° 07:56:57 10° 135° (SE) 3,035 10.3 6.7°
Sets 08:01:04 0° 116° (ESE) 4,041 10.2 7.2°
